Regional Weather Roundup
Issued by NWS

Home | Current Version | Previous Version | Text Only | Print | Product List | Glossary Off
Versions: 1 2 3 4 5 6 7 8 9 10 11 12 13 14 15 16 17 18 19 20 21 22 23 24 25 26 27 28 29 30 31 32 33 34 35 36 37 38 39 40 41 42 43 44 45 46 47 48 49 50

981
ASUS44 KJAN 310810
RWRMS

MISSISSIPPI HOURLY WEATHER ROUNDUP
NATIONAL WEATHER SERVICE JACKSON MS
300 AM CDT FRI OCT 31 2014

NOTE: "FAIR: INDICATES FEW OR NO CLOUDS BELOW 12,000 FEET WITH NO
SIGNIFICANT WEATHER AND/OR OBSTRUCTIONS TO VISIBILITY.

MSZ001>002-007>008-010>013-018>021-025>028-034>036-310900-
NORTHWEST MISSISSIPPI

CITY           SKY/WX    TMP DP  RH WIND       PRES   REMARKS
CLARKSDALE     FAIR      55  50  82 W6        30.01S
CLEVELAND      FAIR      54  50  88 W3        30.00F
GREENWOOD      MOCLDY    51  49  92 CALM      30.00F
GREENVILLE     CLEAR     56  48  74 W9        30.01F
GRENADA        FAIR      45  45 100 CALM      30.00F
OLIVE BRANCH   CLEAR     48  48 100 CALM      29.98F
OXFORD         FAIR      48  45  87 W3        30.00S
TUNICA         SUNNY     52  46  82 CALM      30.00S
$$

MSZ003>006-009-014>017-022>024-029>033-037>039-310900-
NORTHEAST MISSISSIPPI

CITY           SKY/WX    TMP DP  RH WIND       PRES   REMARKS
COLUMBUS AFB   CLOUDY    46  45  95 SE2       30.00F
CORINTH        PTSUNNY   50  48  93 CALM      29.99F
GOLDN TRIANGLE CLOUDY    48  43  81 CALM      29.99F
STARKVILLE     PTSUNNY   43  43 100 CALM      30.00F
TUPELO         CLOUDY    53  46  77 E6        29.99S
$$

MSZ040-058-310900-
CENTRAL MISSISSIPPI

CITY           SKY/WX    TMP DP  RH WIND       PRES   REMARKS
JACKSON INTL   CLEAR     45  42  89 CALM      30.03F
JACKSON HAWKNS CLEAR     49  46  90 CALM      30.03F
MERIDIAN KEY   CLEAR     41  39  93 SW3       30.02F
MERIDIAN NAS   CLEAR     44  40  85 CALM      30.02F
RAYMOND        FAIR      45  39  81 CALM      30.03F HAZE
VICKSBURG      CLEAR     44  42  93 CALM      30.04F
$$

MSZ059>079-310900-
SOUTH MISSISSIPPI

CITY           SKY/WX    TMP DP  RH WIND       PRES   REMARKS
BROOKHAVEN     FAIR      45  43  93 CALM      30.06F
COLUMBIA         N/A     41  41 100 MISG      30.03F
HATTIESBURG    CLEAR     45  41  86 CALM      30.05F
MCCOMB         CLEAR     47  43  86 CALM      30.05F
NATCHEZ        CLEAR     48  45  87 CALM      30.06F
PINE BELT      CLEAR     45  39  81 CALM      30.04F
$$

MSZ080>082-310900-
COASTAL MISSISSIPPI

CITY           SKY/WX    TMP DP  RH WIND       PRES   REMARKS
BILOXI         CLEAR     55  44  67 NW5       30.02F
PASCAGOULA     CLEAR     41  39  93 CALM      30.03S
GULFPORT       CLEAR     48  44  86 CALM      30.02F
$$



USA.gov is the U.S. government's official web portal to all federal, state and local government web resources and services.